Weather in Blystova

Ukraine / Chernihiv Region     51°25′01″N   31°55′08″E
temp.,
°C
wind,
m/s
gust,
m/s
humid.,
%
clouds,
%
prec.,
mm/h
press.,
hPa
HPBL,
m
13 may, thu
thu1300:00+8ne2391100 0.1 101383
03:00+6ese359610 0.1 1012110
06:00+5se359820 0.0 1011118
09:00+9se2384100 0.0 1011382
12:00+13s4564100 0.1 10111338
15:00+14s5663100 0.2 10111446
18:00+14se587356 0.1 1011753
21:00+12sse497860 0.1 1011320
14 may, fri
fri1400:00+10ese41085100 0.0 1011227
03:00+10se41083100 0.1 1011231
06:00+11se41175100 0.0 1010277
09:00+15se5970100 0.0 1010452
12:00+18se687089 0.0 1008800
15:00+20sse466893 0.9 10071226
18:00+18s4779100 2.8 1005401
21:00+14s339021 3.9 100632
15 may, sat
sat1500:00+12sse410955 0.2 1006199
03:00+12sw61097100 0.3 1006450
06:00+11ssw499763 0.0 1008325
09:00+12sw61097100 2.1 1009500
12:00+16ssw578199 2.4 1011872
15:00+19ssw685980 3.2 10101911
18:00+17ssw5874100 0.6 1011776
21:00+13ssw34905 0.6 101245
16 may, sun
sun1600:00+11sw34955 0.0 101258
03:00+10ssw34955 0.0 101460
06:00+10sw229634 0.0 101437
09:00+15s22810 0.0 1014428
12:00+19s23640 0.0 10141058
15:00+21sse345720 0.0 10131618
18:00+21se2367100 0.1 1012322
21:00+16ese2379100 0.1 101219
17 may, mon
mon1700:00+14e3584100 0.0 101170
03:00+15e377899 0.0 1010136
06:00+13e3888100 0.0 1009147
09:00+18e3579100 0.1 1008243
12:00+19nw3382100 0.9 1007476
15:00+20nnw4479100 1.0 1006613
18:00+16nw4892100 2.4 1006393
21:00+15nw5109657 3.9 1007374